This is the latest recevied weather packets stored in our database for station/object K0QJ. If no packets are shown the sender has not sent any weather packets the latest 10 day(s).
| Time | Temp. | Humidity | Pressure | Rain* | Wind** | Luminosity | Snow |
|---|---|---|---|---|---|---|---|
| 1777924024 | 29.44° C | 42% | 1001.1 hPa | 0 mm | - | 658 W/m² | - |
| 1777923720 | 28.89° C | 45% | 1001 hPa | 0 mm | - | 562 W/m² | - |
| 1777923417 | 28.89° C | 44% | 1001 hPa | 0 mm | - | 615 W/m² | - |
| 1777923115 | 28.33° C | 42% | 1001 hPa | 0 mm | - | 628 W/m² | - |
| 1777922812 | 28.33° C | 42% | 1001.1 hPa | 0 mm | - | 644 W/m² | - |
| 1777922510 | 27.78° C | 43% | 1001.2 hPa | 0 mm | - | 632 W/m² | - |
| 1777922208 | 27.78° C | 46% | 1001.3 hPa | 0 mm | - | 634 W/m² | - |
| 1777921904 | 28.33° C | 44% | 1001.3 hPa | 0 mm | - | 663 W/m² | - |
| 1777921601 | 27.78° C | 45% | 1001.1 hPa | 0 mm | - | 691 W/m² | - |
| 1777921298 | 27.78° C | 43% | 1001.7 hPa | 0 mm | - | 736 W/m² | - |
| 1777920994 | 27.78° C | 42% | 1001.5 hPa | 0 mm | - | 742 W/m² | - |
| 1777920690 | 27.22° C | 43% | 1001.3 hPa | 0 mm | - | 703 W/m² | - |
| 1777920386 | 27.22° C | 44% | 1001.4 hPa | 0 mm | - | 638 W/m² | - |
| 1777920081 | 27.22° C | 44% | 1001.5 hPa | 0 mm | - | 726 W/m² | - |
| 1777919779 | 27.22° C | 43% | 1001.5 hPa | 0 mm | - | 735 W/m² | - |
| 1777919476 | 27.22° C | 44% | 1001.6 hPa | 0 mm | - | 754 W/m² | - |
| 1777919174 | 27.22° C | 44% | 1001.6 hPa | 0 mm | - | 761 W/m² | - |
| 1777918871 | 26.67° C | 44% | 1001.6 hPa | 0 mm | - | 749 W/m² | - |
| 1777918569 | 27.22° C | 46% | 1001.8 hPa | 0 mm | - | 742 W/m² | - |
| 1777918266 | 27.22° C | 45% | 1001.5 hPa | 0 mm | - | 732 W/m² | - |
| 1777917965 | 26.67° C | 45% | 1001.8 hPa | 0 mm | - | 749 W/m² | - |
| 1777917664 | 26.67° C | 45% | 1001.7 hPa | 0 mm | - | 783 W/m² | - |
| 1777917360 | 26.67° C | 47% | 1002 hPa | 0 mm | - | 808 W/m² | - |
| 1777917057 | 26.67° C | 45% | 1001.8 hPa | 0 mm | - | 788 W/m² | - |
| 1777916755 | 26.11° C | 45% | 1001.7 hPa | 0 mm | - | 771 W/m² | - |
* Rain latest hour (hover to see other rain measurements)
** Current wind speed in m/s (hover to see current wind gust speed)